Weather History for LHBP - October, 2010

Change the Weather History Date:

Saturday, October 23, 2010

  Actual Average Record
Temperature  
Mean Temperature 44 °F -  
Max Temperature 55 °F 49 °F 75 °F (2013)
Min Temperature 32 °F 35 °F 28 °F (1997)
Degree Days  
Heating Degree Days 22    
Moisture  
Dew Point 34 °F    
Average Humidity 71    
Maximum Humidity 87    
Minimum Humidity 51    
Precipitation  
Precipitation 0.00 in - - ()
Sea Level Pressure  
Sea Level Pressure 30.11 in    
Wind  
Wind Speed 5 mph ()    
Max Wind Speed 9 mph    
Max Gust Speed -    
Visibility 6.2 miles    
Events      
Averages and records for this station are not official NWS values.
T = Trace of Precipitation, MM = Missing Value Source: Averaged Metar Reports

Daily Weather History Graph

Daily Weather History Graph

Search for Another Location

Airport or City:

Trip Planner

Search our weather history database for the weather conditions in past years. The results will help you decide how hot, cold, wet, or windy it might be!

Date:

Astronomy

Oct. 23, 2010 Rise Set
Actual Time 7:12 AM CEST 5:41 PM CEST
Civil Twilight 6:41 AM CEST 6:12 PM CEST
Nautical Twilight 6:05 AM CEST 6:48 PM CEST
Astronomical Twilight 5:29 AM CEST 7:23 PM CEST
Moon 5:25 PM CEST (10/23) 7:41 AM CEST (10/23)
Length of Visible Light 11h 31m
Length of Day
10h 28m
Full, 100% of the Moon is Illuminated
Oct 23
Full
Oct 30
Last Quarter
Nov 6
New
Nov 13
First Quarter
Nov 21
Full

Hourly Weather History & Observations

Time (CEST) Temp. Windchill Dew Point Humidity Pressure Visibility Wind Dir Wind Speed Gust Speed Precip Events Conditions
12:00 AM 35.6 °F - 28.4 °F 75% 30.21 in - Variable 1.2 mph - N/A   Clear
12:30 AM 33.8 °F 27.7 °F 28.4 °F 81% 30.21 in - East 6.9 mph - N/A   Clear
1:00 AM 37.4 °F 33.8 °F 28.4 °F 70% 30.18 in - NE 4.6 mph - N/A   Clear
1:30 AM 39.2 °F 35.9 °F 30.2 °F 70% 30.18 in - ENE 4.6 mph - N/A   Clear
2:00 AM 37.4 °F 33.8 °F 30.2 °F 75% 30.18 in - East 4.6 mph - N/A   Clear
2:30 AM 39.2 °F 35.0 °F 28.4 °F 65% 30.18 in - East 5.8 mph - N/A   Clear
3:00 AM 37.4 °F 33.8 °F 28.4 °F 70% 30.18 in - NE 4.6 mph - N/A   Clear
3:30 AM 35.6 °F 32.8 °F 28.4 °F 75% 30.18 in - Variable 3.5 mph - N/A   Clear
4:00 AM 32.0 °F 28.7 °F 28.4 °F 87% 30.18 in - Variable 3.5 mph - N/A   Clear
4:30 AM 33.8 °F 29.6 °F 28.4 °F 81% 30.18 in - East 4.6 mph - N/A   Clear
5:00 AM 35.6 °F 29.9 °F 30.2 °F 81% 30.15 in - East 6.9 mph - N/A   Clear
5:30 AM 35.6 °F 28.6 °F 30.2 °F 81% 30.15 in - ENE 9.2 mph - N/A   Clear
6:00 AM 37.4 °F 31.4 °F 30.2 °F 75% 30.15 in - ENE 8.1 mph - N/A   Clear
6:30 AM 35.6 °F 29.9 °F 30.2 °F 81% 30.15 in - East 6.9 mph - N/A   Clear
7:00 AM 35.6 °F 30.7 °F 30.2 °F 81% 30.15 in - East 5.8 mph - N/A   Clear
7:30 AM 35.6 °F 30.7 °F 30.2 °F 81% 30.15 in - East 5.8 mph - N/A   Clear
8:00 AM 37.4 °F 32.8 °F 30.2 °F 75% 30.15 in 6.2 mi East 5.8 mph - N/A   Mostly Cloudy
8:30 AM 37.4 °F 33.8 °F 30.2 °F 75% 30.18 in - East 4.6 mph - N/A   Clear
9:00 AM 39.2 °F 35.0 °F 30.2 °F 70% 30.15 in 6.2 mi ENE 5.8 mph - N/A   Mostly Cloudy
9:30 AM 39.2 °F 35.0 °F 32.0 °F 75% 30.15 in 6.2 mi ENE 5.8 mph - N/A   Mostly Cloudy
10:00 AM 39.2 °F 35.0 °F 32.0 °F 75% 30.15 in 6.2 mi East 5.8 mph - N/A   Mostly Cloudy
10:30 AM 41.0 °F 36.4 °F 32.0 °F 70% 30.15 in 6.2 mi ENE 6.9 mph - N/A   Mostly Cloudy
11:00 AM 42.8 °F 38.6 °F 33.8 °F 70% 30.15 in 6.2 mi East 6.9 mph - N/A   Mostly Cloudy
11:30 AM 42.8 °F 38.6 °F 33.8 °F 70% 30.15 in - East 6.9 mph - N/A   Clear
12:00 PM 44.6 °F 42.2 °F 33.8 °F 66% 30.15 in - East 4.6 mph - N/A   Clear
12:30 PM 46.4 °F 43.5 °F 35.6 °F 66% 30.15 in 6.2 mi East 5.8 mph - N/A   Mostly Cloudy
1:00 PM 46.4 °F 42.9 °F 35.6 °F 66% 30.12 in 6.2 mi ESE 6.9 mph - N/A   Mostly Cloudy
1:30 PM 48.2 °F - 35.6 °F 62% 30.12 in 6.2 mi ESE 8.1 mph - N/A   Mostly Cloudy
2:00 PM 51.8 °F - 37.4 °F 58% 30.09 in 6.2 mi ESE 6.9 mph - N/A   Scattered Clouds
2:30 PM 51.8 °F - 37.4 °F 58% 30.09 in 6.2 mi SE 6.9 mph - N/A   Scattered Clouds
3:00 PM 53.6 °F - 37.4 °F 54% 30.09 in 6.2 mi SE 6.9 mph - N/A   Scattered Clouds
3:30 PM 55.4 °F - 37.4 °F 51% 30.06 in 6.2 mi SE 6.9 mph - N/A   Scattered Clouds
4:00 PM 55.4 °F - 39.2 °F 54% 30.06 in 6.2 mi ESE 5.8 mph - N/A   Partly Cloudy
4:30 PM 55.4 °F - 39.2 °F 54% 30.06 in - East 5.8 mph - N/A   Clear
5:00 PM 53.6 °F - 39.2 °F 58% 30.06 in - East 4.6 mph - N/A   Clear
5:30 PM 51.8 °F - 39.2 °F 62% 30.04 in - ENE 4.6 mph - N/A   Clear
6:00 PM 50.0 °F - 39.2 °F 66% 30.04 in - ENE 6.9 mph - N/A   Clear
6:30 PM 50.0 °F - 39.2 °F 66% 30.04 in - ENE 9.2 mph - N/A   Clear
7:00 PM 46.4 °F 45.2 °F 37.4 °F 71% 30.04 in - Variable 3.5 mph - N/A   Clear
7:30 PM 42.8 °F - 35.6 °F 76% 30.04 in - Variable 2.3 mph - N/A   Clear
8:00 PM 44.6 °F - 39.2 °F 81% 30.04 in - Variable 1.2 mph - N/A   Clear
8:30 PM 44.6 °F - 39.2 °F 81% 30.04 in 6.2 mi Variable 1.2 mph - N/A   Mostly Cloudy
9:00 PM 44.6 °F 43.1 °F 39.2 °F 81% 30.01 in 6.2 mi Variable 3.5 mph - N/A   Mostly Cloudy
9:30 PM 46.4 °F - 39.2 °F 76% 30.01 in 6.2 mi Variable 2.3 mph - N/A   Mostly Cloudy
10:00 PM 44.6 °F 43.1 °F 41.0 °F 87% 30.01 in 6.2 mi Variable 3.5 mph - N/A   Overcast
10:30 PM 44.6 °F 43.1 °F 37.4 °F 76% 30.01 in 6.2 mi Variable 3.5 mph - N/A   Mostly Cloudy
11:00 PM 44.6 °F 42.2 °F 39.2 °F 81% 30.01 in - NNW 4.6 mph - N/A   Clear
11:30 PM 48.2 °F - 39.2 °F 71% 30.01 in 6.2 mi ENE 4.6 mph - N/A   Mostly Cloudy